Location: Kaseke
(18.0171°S, 31.0526°E)
Time: 12:26:53
(UTC+00:00)

Cosmos 1818 - Pass Details

Date: 14 July 2020
Orbit: 777 x 796 km, 65.0° (Epoch: 07 August)

Event Time Altitude Azimuth Distance (km) Brightness Sun altitude
Rises 03:18:17 0° 342° (NNW) 3,269 6.8 -16.3°
Reaches altitude 10° 03:20:41 10° 344° (NNW) 2,343 6.0 -15.7°
Maximum altitude 03:26:03 72° 67° (ENE) 827 3.8 -14.5°
Drops below altitude 10° 03:31:27 10° 152° (SSE) 2,352 6.1 -13.3°
Sets 03:33:52 0° 153° (SSE) 3,282 6.9 -12.8°
